Weather History for Leonardtown, MD

Change the Weather History Date:

Thursday, February 13, 2014

  Actual Average (KNHK) Record (KNHK)
Temperature  
Mean Temperature 32 °F -  
Max Temperature 33 °F 39 °F 36 °F (2014)
Min Temperature 30 °F 26 °F 30 °F (2014)
Degree Days  
Heating Degree Days 34    
Moisture  
Dew Point 32 °F    
Average Humidity 95    
Maximum Humidity 100    
Minimum Humidity 87    
Precipitation  
Precipitation 0.00 in - - ()
Sea Level Pressure  
Sea Level Pressure 29.52 in    
Wind  
Wind Speed 9 mph (North)    
Max Wind Speed 15 mph    
Max Gust Speed 25 mph    
Visibility 4 miles    
Events      
Averages and records for this station are not official NWS values.
T = Trace of Precipitation, MM = Missing Value Source: NWS Daily Summary

Daily Weather History Graph

Daily Weather History Graph

Search for Another Location

Airport:

Trip Planner

Search our weather history database for the weather conditions in past years. The results will help you decide how hot, cold, wet, or windy it might be!

Date:

Astronomy

Feb. 13, 2014 Rise Set
Actual Time 6:58 AM EST 5:42 PM EST
Civil Twilight 6:31 AM EST 6:09 PM EST
Nautical Twilight 6:00 AM EST 6:40 PM EST
Astronomical Twilight 5:30 AM EST 7:11 PM EST
Moon 4:48 PM EST (2/13) 5:50 AM EST (2/13)
Length of Visible Light 11h 37m
Length of Day
10h 43m
Waxing Gibbous, 98% of the Moon is Illuminated
Feb 13
Waxing Gibbous
Feb 14
Full
Feb 22
Last Quarter
Mar 1
New
Mar 8
First Quarter

Hourly Weather History & Observations

Time (EST) Temp. Windchill Dew Point Humidity Pressure Visibility Wind Dir Wind Speed Gust Speed Precip Events Conditions
12:19 AM 30.2 °F 22.6 °F 28.4 °F 93% 30.06 in 3.0 mi NE 8.1 mph - N/A   Overcast
12:39 AM 30.2 °F 22.6 °F 28.4 °F 93% 30.03 in 2.0 mi NE 8.1 mph - N/A   Overcast
12:59 AM 32.0 °F 25.6 °F 28.4 °F 87% 30.02 in 2.5 mi NE 6.9 mph - N/A   Overcast
1:19 AM 30.2 °F 21.3 °F 28.4 °F 93% 29.99 in 2.0 mi North 10.4 mph 18.4 mph N/A   Overcast
1:39 AM 32.0 °F 24.2 °F 28.4 °F 87% 29.98 in 5.0 mi North 9.2 mph - N/A   Overcast
1:59 AM 32.0 °F 23.6 °F 30.2 °F 93% 29.95 in 5.0 mi NNE 10.4 mph 16.1 mph N/A   Overcast
2:20 AM 32.0 °F 22.5 °F 30.2 °F 93% 29.93 in 4.0 mi NNE 12.7 mph 24.2 mph N/A   Overcast
2:40 AM 32.0 °F 24.8 °F 30.2 °F 93% 29.91 in 5.0 mi NNE 8.1 mph 19.6 mph N/A   Overcast
3:00 AM 32.0 °F 26.4 °F 30.2 °F 93% 29.87 in 5.0 mi NNE 5.8 mph 17.3 mph N/A   Overcast
3:20 AM 32.0 °F 24.8 °F 30.2 °F 93% 29.85 in 4.0 mi NE 8.1 mph 17.3 mph N/A   Overcast
3:40 AM 32.0 °F 23.6 °F 30.2 °F 93% 29.82 in 3.0 mi NE 10.4 mph - N/A   Overcast
4:00 AM 32.0 °F - 30.2 °F 93% 29.80 in 3.0 mi Calm Calm - N/A   Overcast
4:20 AM 32.0 °F 24.8 °F 32.0 °F 100% 29.76 in 3.0 mi NNE 8.1 mph - N/A   Overcast
4:40 AM 32.0 °F 25.6 °F 32.0 °F 100% 29.74 in 5.0 mi NNE 6.9 mph - N/A   Overcast
5:00 AM 32.0 °F 23.6 °F 32.0 °F 100% 29.72 in 3.0 mi NNE 10.4 mph 23.0 mph N/A   Overcast
5:20 AM 32.0 °F 24.2 °F 32.0 °F 100% 29.70 in 4.0 mi NNE 9.2 mph 24.2 mph N/A   Overcast
5:40 AM 32.0 °F 24.2 °F 32.0 °F 100% 29.68 in 2.5 mi NNE 9.2 mph 18.4 mph N/A   Overcast
6:00 AM 32.0 °F 24.2 °F 32.0 °F 100% 29.67 in 3.0 mi NNE 9.2 mph 20.7 mph N/A   Overcast
6:20 AM 33.8 °F 25.3 °F 32.0 °F 93% 29.66 in 2.5 mi NNE 11.5 mph 25.3 mph N/A   Overcast
6:40 AM 32.0 °F 23.0 °F 32.0 °F 100% 29.66 in 4.0 mi NNE 11.5 mph 20.7 mph N/A   Overcast
7:00 AM 33.8 °F 25.3 °F 32.0 °F 93% 29.65 in 4.0 mi NE 11.5 mph 18.4 mph N/A   Overcast
7:20 AM 33.8 °F 26.4 °F 32.0 °F 93% 29.64 in 3.0 mi NNE 9.2 mph 18.4 mph N/A   Overcast
7:40 AM 33.8 °F 25.8 °F 32.0 °F 93% 29.64 in 4.0 mi North 10.4 mph 17.3 mph N/A   Overcast
8:00 AM 33.8 °F 27.0 °F 32.0 °F 93% 29.62 in 2.5 mi North 8.1 mph 19.6 mph N/A   Overcast
8:20 AM 33.8 °F 26.4 °F 32.0 °F 93% 29.61 in 3.0 mi North 9.2 mph 24.2 mph N/A   Overcast
8:40 AM 33.8 °F 25.8 °F 32.0 °F 93% 29.60 in 3.0 mi NNE 10.4 mph 23.0 mph N/A   Overcast
9:00 AM 33.8 °F 25.8 °F 32.0 °F 93% 29.59 in 4.0 mi North 10.4 mph 17.3 mph N/A   Overcast
9:20 AM 33.8 °F 25.8 °F 32.0 °F 93% 29.56 in 5.0 mi NNE 10.4 mph 20.7 mph N/A   Overcast
9:40 AM 33.8 °F 26.4 °F 32.0 °F 93% 29.55 in 7.0 mi North 9.2 mph 20.7 mph N/A   Overcast
10:00 AM 33.8 °F 27.0 °F 32.0 °F 93% 29.52 in 5.0 mi North 8.1 mph 20.7 mph N/A   Overcast
10:20 AM 33.8 °F 26.4 °F 32.0 °F 93% 29.52 in 4.0 mi NNE 9.2 mph 19.6 mph N/A   Overcast
10:40 AM 33.8 °F 26.4 °F 32.0 °F 93% 29.50 in 4.0 mi North 9.2 mph 16.1 mph N/A   Overcast
11:01 AM 33.8 °F 26.4 °F 32.0 °F 93% 29.49 in 5.0 mi NNE 9.2 mph - N/A   Overcast
11:21 AM 33.8 °F 27.7 °F 32.0 °F 93% 29.48 in 7.0 mi North 6.9 mph - N/A   Overcast
11:41 AM 33.8 °F 27.0 °F 32.0 °F 93% 29.47 in 5.0 mi North 8.1 mph - N/A   Overcast
12:01 PM 33.8 °F 25.8 °F 32.0 °F 93% 29.45 in 7.0 mi North 10.4 mph 16.1 mph N/A   Overcast
12:21 PM 33.8 °F 26.4 °F 32.0 °F 93% 29.43 in 4.0 mi North 9.2 mph 17.3 mph N/A   Overcast
12:41 PM 33.8 °F 28.6 °F 32.0 °F 93% 29.41 in 3.0 mi North 5.8 mph 16.1 mph N/A   Overcast
1:01 PM 33.8 °F 26.4 °F 32.0 °F 93% 29.38 in 2.5 mi North 9.2 mph 17.3 mph N/A   Overcast
1:21 PM 33.8 °F 25.8 °F 32.0 °F 93% 29.38 in 2.0 mi North 10.4 mph 19.6 mph N/A   Overcast
1:41 PM 33.8 °F 25.8 °F 32.0 °F 93% 29.35 in 2.5 mi North 10.4 mph - N/A   Overcast
2:01 PM 33.8 °F 27.7 °F 32.0 °F 93% 29.34 in 3.0 mi North 6.9 mph 16.1 mph N/A   Overcast
2:41 PM 33.8 °F 25.3 °F 32.0 °F 93% 29.32 in 3.0 mi North 11.5 mph 18.4 mph N/A   Overcast
3:01 PM 33.8 °F 27.0 °F 32.0 °F 93% 29.30 in 2.5 mi North 8.1 mph 16.1 mph N/A   Overcast
3:21 PM 33.8 °F 28.6 °F 32.0 °F 93% 29.29 in 1.8 mi North 5.8 mph - N/A   Overcast
3:41 PM 33.8 °F 25.3 °F 32.0 °F 93% 29.27 in 2.0 mi North 11.5 mph 17.3 mph N/A   Overcast
4:01 PM 33.8 °F 27.7 °F 32.0 °F 93% 29.28 in 4.0 mi North 6.9 mph - N/A   Overcast
4:21 PM 33.8 °F 27.7 °F 32.0 °F 93% 29.33 in 2.5 mi NNW 6.9 mph - N/A   Overcast
4:41 PM 33.8 °F 29.6 °F 32.0 °F 93% 29.30 in 2.0 mi NW 4.6 mph - N/A   Overcast
5:01 PM 33.8 °F 28.6 °F 32.0 °F 93% 29.27 in 2.5 mi North 5.8 mph - N/A   Overcast
5:21 PM 33.8 °F 29.6 °F 32.0 °F 93% 29.26 in 5.0 mi NNW 4.6 mph - N/A   Overcast
5:41 PM 33.8 °F 28.6 °F 32.0 °F 93% 29.29 in 5.0 mi West 5.8 mph - N/A   Overcast
6:01 PM 33.8 °F 27.7 °F 32.0 °F 93% 29.30 in 7.0 mi WNW 6.9 mph - N/A   Overcast
6:21 PM 33.8 °F 27.0 °F 32.0 °F 93% 29.29 in 3.0 mi West 8.1 mph - N/A   Overcast
6:41 PM 32.0 °F 24.8 °F 32.0 °F 100% 29.29 in 2.5 mi WNW 8.1 mph - N/A   Overcast
7:01 PM 32.0 °F 26.4 °F 32.0 °F 100% 29.29 in 3.0 mi WNW 5.8 mph - N/A   Overcast
7:21 PM 32.0 °F 23.6 °F 32.0 °F 100% 29.29 in 4.0 mi WNW 10.4 mph - N/A   Overcast
7:42 PM 32.0 °F 24.2 °F 32.0 °F 100% 29.29 in 2.0 mi WNW 9.2 mph - N/A   Overcast
8:02 PM 32.0 °F 24.8 °F 32.0 °F 100% 29.29 in 4.0 mi WNW 8.1 mph - N/A   Overcast
8:22 PM 32.0 °F 24.2 °F 32.0 °F 100% 29.29 in 3.0 mi West 9.2 mph 19.6 mph N/A   Overcast
8:42 PM 32.0 °F 23.6 °F 32.0 °F 100% 29.29 in 3.0 mi WNW 10.4 mph 16.1 mph N/A   Overcast
9:02 PM 32.0 °F 23.6 °F 32.0 °F 100% 29.30 in 5.0 mi West 10.4 mph 19.6 mph N/A   Overcast
9:22 PM 32.0 °F 23.0 °F 32.0 °F 100% 29.31 in 1.2 mi West 11.5 mph 19.6 mph N/A   Overcast
9:42 PM 32.0 °F 23.6 °F 32.0 °F 100% 29.33 in 1.0 mi WNW 10.4 mph 16.1 mph N/A   Overcast
10:02 PM 32.0 °F 24.2 °F 32.0 °F 100% 29.34 in 2.5 mi West 9.2 mph 17.3 mph N/A   Overcast
10:22 PM 32.0 °F 22.5 °F 32.0 °F 100% 29.34 in 3.0 mi West 12.7 mph 19.6 mph N/A   Overcast
10:42 PM 32.0 °F 22.5 °F 32.0 °F 100% 29.35 in 7.0 mi West 12.7 mph 20.7 mph N/A   Overcast
11:02 PM 33.8 °F 25.3 °F 32.0 °F 93% 29.37 in 10.0 mi West 11.5 mph 20.7 mph N/A   Overcast
11:22 PM 33.8 °F 23.9 °F 32.0 °F 93% 29.36 in 10.0 mi West 15.0 mph 23.0 mph N/A   Overcast
11:42 PM 33.8 °F 24.8 °F 32.0 °F 93% 29.37 in 10.0 mi West 12.7 mph 17.3 mph N/A   Overcast